RYR87SW EGSS-LOWS

Flight info

Callsign RYR87SW
Flight time N/A
Altitude 33000
Route EGSS/04 CLN M84 KONAN DCT KOK DCT DENOX DCT REMBA DCT RITAX DCT PITES M150 KRH DCT UTABA L607 XEBIX N871 BADVI L725 UNKEN UNKEN2R
Aircraft B38M/M-SDE1FGHILORVWXY/HB1

Departure

Time N/A
Airport London Stansted Airport (EGSS)

Arrival

Time 2026-04-28 19:59
Airport Salzburg Airport (LOWS)
Time Latitude Longitude Altitude Speed Heading
2026-04-28 19:38 47.45905 10.42816 33119 ft 459 kts 128°
2026-04-28 19:38 47.44281 10.46965 33110 ft 463 kts 114°
2026-04-28 19:39 47.43308 10.51400 33115 ft 463 kts 101°
2026-04-28 19:39 47.42973 10.56107 33109 ft 461 kts 87°
2026-04-28 19:39 47.43310 10.60790 33116 ft 458 kts 73°
2026-04-28 19:39 47.44239 10.65245 33106 ft 451 kts 65°
2026-04-28 19:40 47.46377 10.73954 33100 ft 451 kts 65°
2026-04-28 19:40 47.48495 10.82681 33086 ft 450 kts 66°
2026-04-28 19:41 47.49553 10.87065 32872 ft 453 kts 65°
2026-04-28 19:41 47.50610 10.91434 32565 ft 451 kts 65°
2026-04-28 19:41 47.51665 10.95796 32119 ft 451 kts 65°
2026-04-28 19:41 47.52711 11.00148 31684 ft 446 kts 65°
2026-04-28 19:42 47.53746 11.04465 31253 ft 446 kts 65°
2026-04-28 19:42 47.54787 11.08797 30843 ft 448 kts 66°
2026-04-28 19:42 47.55832 11.13148 30434 ft 448 kts 66°
2026-04-28 19:42 47.56874 11.17497 30001 ft 448 kts 66°
2026-04-28 19:43 47.57912 11.21841 29519 ft 447 kts 66°
2026-04-28 19:43 47.58948 11.26184 29061 ft 447 kts 66°
2026-04-28 19:43 47.59985 11.30532 28608 ft 448 kts 66°
2026-04-28 19:43 47.61022 11.34896 28158 ft 449 kts 67°
2026-04-28 19:44 47.62056 11.39261 27722 ft 449 kts 68°
2026-04-28 19:44 47.62979 11.43686 27288 ft 451 kts 70°
2026-04-28 19:44 47.63891 11.48147 26861 ft 452 kts 70°
2026-04-28 19:44 47.64816 11.52590 26449 ft 450 kts 70°
2026-04-28 19:45 47.65722 11.57005 26027 ft 447 kts 71°
2026-04-28 19:45 47.66613 11.61416 25621 ft 445 kts 71°
2026-04-28 19:45 47.67503 11.65795 25209 ft 441 kts 71°
2026-04-28 19:45 47.68389 11.70126 24798 ft 436 kts 71°
2026-04-28 19:46 47.69263 11.74421 24397 ft 433 kts 71°
2026-04-28 19:46 47.70125 11.78693 23971 ft 431 kts 72°
2026-04-28 19:46 47.70909 11.82968 23492 ft 428 kts 73°
2026-04-28 19:46 47.71717 11.87194 22993 ft 423 kts 72°
2026-04-28 19:47 47.72530 11.91366 22479 ft 419 kts 73°
2026-04-28 19:47 47.73273 11.95528 21977 ft 415 kts 77°
2026-04-28 19:47 47.73835 11.99709 21485 ft 411 kts 77°
2026-04-28 19:47 47.74411 12.03847 21005 ft 407 kts 77°
2026-04-28 19:48 47.75004 12.07951 20487 ft 404 kts 77°
2026-04-28 19:48 47.75580 12.12025 19872 ft 403 kts 77°
2026-04-28 19:48 47.76141 12.16096 19284 ft 401 kts 77°
2026-04-28 19:48 47.76701 12.20156 18696 ft 399 kts 77°
2026-04-28 19:49 47.77263 12.24181 18081 ft 397 kts 77°
2026-04-28 19:49 47.77821 12.28185 17419 ft 395 kts 77°
2026-04-28 19:49 47.78367 12.32164 16779 ft 391 kts 77°
2026-04-28 19:49 47.78916 12.36160 16137 ft 387 kts 77°
2026-04-28 19:50 47.79975 12.43873 14914 ft 380 kts 77°
2026-04-28 19:50 47.80497 12.47703 14321 ft 376 kts 77°
2026-04-28 19:50 47.81012 12.51492 13704 ft 372 kts 77°
2026-04-28 19:51 47.81522 12.55248 13041 ft 368 kts 77°
2026-04-28 19:51 47.82144 12.58915 12399 ft 363 kts 67°
2026-04-28 19:51 47.83433 12.62098 11769 ft 357 kts 49°
2026-04-28 19:51 47.85084 12.64830 11157 ft 353 kts 46°
2026-04-28 19:52 47.86766 12.67480 10555 ft 350 kts 45°
2026-04-28 19:52 47.88427 12.70116 9952 ft 347 kts 46°
2026-04-28 19:52 47.90002 12.72675 9266 ft 324 kts 47°
2026-04-28 19:52 47.91477 12.75072 8590 ft 305 kts 47°
2026-04-28 19:53 47.92883 12.77337 7948 ft 291 kts 47°
2026-04-28 19:53 47.94229 12.79505 7304 ft 279 kts 48°
2026-04-28 19:53 47.95524 12.81599 6677 ft 270 kts 48°
2026-04-28 19:53 47.96782 12.83637 6042 ft 264 kts 49°
2026-04-28 19:54 47.98004 12.85658 5467 ft 264 kts 56°
2026-04-28 19:54 47.98602 12.88204 4884 ft 258 kts 90°
2026-04-28 19:54 47.98094 12.90636 4305 ft 253 kts 126°
2026-04-28 19:54 47.96623 12.92119 4022 ft 262 kts 159°
2026-04-28 19:55 47.95009 12.92517 4024 ft 209 kts 166°
2026-04-28 19:55 47.93725 12.92768 4006 ft 169 kts 165°
2026-04-28 19:55 47.92614 12.93003 3939 ft 160 kts 163°
2026-04-28 19:55 47.91535 12.93280 3707 ft 153 kts 162°
2026-04-28 19:56 47.90532 12.93588 3656 ft 141 kts 159°
2026-04-28 19:56 47.89621 12.93938 3437 ft 133 kts 153°
2026-04-28 19:56 47.88765 12.94423 3230 ft 129 kts 150°
2026-04-28 19:56 47.87956 12.94917 3069 ft 126 kts 149°
2026-04-28 19:57 47.87168 12.95417 2912 ft 124 kts 149°
2026-04-28 19:57 47.86378 12.95919 2746 ft 123 kts 149°
2026-04-28 19:57 47.85603 12.96399 2615 ft 124 kts 151°
2026-04-28 19:57 47.84791 12.96910 2452 ft 126 kts 151°
2026-04-28 19:58 47.83993 12.97458 2212 ft 126 kts 152°
2026-04-28 19:58 47.83215 12.97951 2129 ft 130 kts 154°
2026-04-28 19:58 47.82414 12.98463 1887 ft 124 kts 155°
2026-04-28 19:58 47.81586 12.98978 1704 ft 125 kts 155°
2026-04-28 19:59 47.80751 12.99503 1553 ft 137 kts 156°
2026-04-28 19:59 47.79894 13.00038 1436 ft 135 kts 157°
2026-04-28 19:59 47.79160 13.00504 1420 ft 82 kts 158°
2026-04-28 19:59 47.78827 13.00713 1420 ft 36 kts 156°
2026-04-28 20:00 47.78625 13.00836 1420 ft 27 kts 163°
2026-04-28 20:00 47.78537 13.00754 1421 ft 10 kts 249°
2026-04-28 20:00 47.78531 13.00692 1422 ft 3 kts 271°
2026-04-28 20:00 47.78531 13.00686 1422 ft 0 kts 275°
2026-04-28 20:01 47.78532 13.00680 1422 ft 1 kts 279°
2026-04-28 20:01 47.78535 13.00659 1422 ft 3 kts 285°
2026-04-28 20:01 47.78549 13.00628 1423 ft 4 kts 320°
2026-04-28 20:01 47.78586 13.00599 1423 ft 8 kts 336°
2026-04-28 20:02 47.78653 13.00556 1422 ft 13 kts 337°
2026-04-28 20:02 47.78759 13.00489 1421 ft 19 kts 337°
2026-04-28 20:02 47.78892 13.00405 1420 ft 22 kts 337°
2026-04-28 20:02 47.78954 13.00281 1423 ft 15 kts 274°
2026-04-28 20:03 47.78986 13.00140 1423 ft 14 kts 324°
2026-04-28 20:03 47.79080 13.00075 1423 ft 16 kts 336°
2026-04-28 20:03 47.79151 13.00005 1423 ft 10 kts 296°
2026-04-28 20:03 47.79166 12.99907 1423 ft 6 kts 280°
2026-04-28 20:04 47.79170 12.99878 1423 ft 0 kts 283°